Location: ShareBrained
(45.5589°N, 122.6491°W)
Time: 13:19:26
(UTC-08:00)

NOAA 19 - Pass Details

Date: 22 January 2020
Orbit: 840 x 862 km, 99.2° (Epoch: 24 February)

Event Time Altitude Azimuth Distance (km) Brightness Sun altitude
Rises 05:10:17 0° 24° (NNE) 3,408 8.6 -26.4°
Reaches altitude 10° 05:13:00 10° 36° (NE) 2,467 8.0 -25.9°
Maximum altitude 05:17:40 28° 95° (E) 1,524 7.2 -25.1°
Drops below altitude 10° 05:22:18 10° 154° (SSE) 2,453 8.0 -24.3°
Sets 05:24:58 0° 165° (SSE) 3,384 8.6 -23.8°
